Tracking 30696 objects as of 15-Jun-2025
HD Live streaming from Space Station
objects crossing your sky now

TITAN 3C TRANSTAGE DEB

Track TITAN 3C TRANSTAGE DEB now!


NORAD ID: 36980
Int'l Code: 1965-108DL
Perigee: 608.0 km
Apogee: 30,137.1 km
Inclination: 27.1 °
Period: 531.8 minutes
Semi major axis: 21743 km
RCS: 0.0286 m2 (small)
Launch date: December 21, 1965
Source: United States (US)
Launch site: AIR FORCE EASTERN TEST RANGE (AFETR)

Note: This is SATELLITE DEBRIS
Your satellite tracking list
Your tracking list is empty




NASA's NSSDC Master Catalog

Two Line Element Set (TLE):
1 36980U 65108DL  25163.72543285 -.00000032  00000-0  13619-2 0  9997
2 36980  27.1226 350.3071 6790314 103.4065 357.6021  2.70774197 10364
Source of the keplerian elements: AFSPC